Theta_e
326 326 326 326 325 325 325 325 325 324 324 323 324 323 323 323 322 322 322 322 322 322 322 322 322 324 323 317 322 329 349 349 342 344 337 341 336 334 326 330 332 327 330 329 330 331 328
326 326 326 325 325 325 325 325 325 324 323 323 323 323 323 323 321 321 321 322 322 321 322 322 323 323 319 316 328 329 332 333 335 335 340 340 335 334 333 333 331 332 330 329 328 329 330
326 326 326 325 325 324 324 324 324 324 323 322 322 322 322 322 321 321 320 320 320 321 322 323 324 324 321 320 329 327 332 330 338 342 330 337 338 329 329 332 333 332 326 327 327 329 328
325 325 325 325 325 324 324 323 323 322 322 322 322 321 321 321 321 320 320 319 320 321 323 324 325 322 320 329 330 327 330 328 329 332 327 331 337 329 328 338 333 326 325 318 327 328 331
324 324 324 324 324 323 322 322 321 321 320 320 320 320 319 320 320 319 319 319 321 324 325 325 323 323 318 329 323 325 326 321 322 326 329 333 329 324 328 327 325 324 314 317 316 327 330
324 323 321 321 321 320 320 319 319 319 319 319 319 319 318 319 318 318 318 319 325 319 322 327 327 319 321 316 322 323 324 321 318 320 323 327 325 319 321 323 313 316 316 318 316 326 328
323 322 321 321 320 320 319 319 318 318 318 318 318 318 318 318 317 317 319 325 320 318 320 317 317 319 319 322 325 321 321 318 317 316 315 321 316 313 317 326 326 323 321 319 320 325 323
323 322 321 320 320 319 318 318 318 318 318 317 318 317 318 317 316 316 319 323 320 322 314 318 318 318 321 321 315 318 322 313 313 309 316 317 310 317 320 323 323 322 320 319 324 325 324
321 320 319 319 318 318 317 317 317 317 317 316 317 317 317 316 315 317 322 323 325 324 314 317 316 316 318 318 314 316 318 314 312 310 312 313 315 317 317 317 315 317 315 318 317 323 323
320 319 318 318 317 317 316 316 316 316 316 316 316 316 316 314 317 326 322 326 326 324 310 313 312 315 318 318 312 321 320 316 314 310 313 314 318 314 313 312 316 312 319 317 316 313 311
319 318 317 316 316 316 316 315 315 315 315 315 315 315 314 314 322 324 326 327 326 322 302 312 313 322 319 314 316 315 323 318 312 312 313 312 312 312 311 312 315 314 319 317 317 314 314
317 317 316 315 315 315 315 314 314 314 314 314 314 314 314 323 327 325 329 327 321 307 301 310 313 312 312 314 315 317 317 319 319 313 313 312 319 314 313 314 313 315 313 313 314 313 306
316 315 315 315 314 315 314 314 314 313 313 313 313 312 313 326 327 332 328 322 307 302 315 310 310 312 311 310 312 313 312 310 308 304 305 310 310 314 314 309 312 311 307 301 302 304 304
315 315 314 315 314 314 313 313 313 313 312 312 310 311 320 328 331 331 324 314 303 312 312 315 313 312 308 312 311 311 311 308 312 311 307 304 303 310 313 309 307 308 307 301 298 302 306
315 315 314 313 313 313 313 313 313 312 312 311 309 325 330 333 332 328 318 306 309 313 316 313 312 308 308 311 311 310 309 310 312 312 306 306 306 315 313 313 311 308 305 309 304 306 303
313 313 313 313 312 312 313 313 313 312 311 310 315 323 328 333 329 322 313 306 313 318 316 314 308 310 307 309 309 309 309 312 312 315 316 310 305 312 313 314 312 309 312 304 304 298 298
313 313 313 313 313 313 314 313 313 312 310 309 318 319 328 331 326 317 308 311 314 319 318 312 310 310 311 310 311 309 309 313 314 314 316 313 309 308 312 308 307 307 305 307 307 306 300
312 313 313 314 314 314 314 314 313 311 309 313 318 312 329 330 314 314 310 313 310 316 319 314 313 312 311 312 312 311 309 312 316 315 310 314 309 304 307 313 313 310 308 308 303 303 306
312 314 315 315 315 315 314 314 313 311 309 312 312 312 320 324 308 308 313 313 316 315 314 313 311 313 314 312 309 312 313 317 316 314 311 313 307 302 304 309 312 308 309 310 309 308 306
313 315 315 315 315 316 316 315 314 313 311 312 312 307 316 319 319 313 310 310 311 318 315 315 313 314 312 311 313 311 312 316 316 315 322 315 309 306 301 306 310 306 307 309 308 305 304
315 316 316 316 316 316 316 316 315 314 313 312 314 309 313 308 312 312 312 314 311 310 315 317 313 312 312 310 311 310 313 314 316 319 314 311 305 307 308 309 309 309 308 308 306 307 304
315 316 316 316 316 316 316 316 315 314 312 312 308 308 312 309 312 310 307 308 308 309 310 311 311 314 313 311 312 310 313 313 312 315 311 311 306 307 304 308 308 306 308 309 309 308 308
315 315 316 316 316 316 317 317 316 314 312 314 316 318 313 307 307 305 304 306 308 311 312 314 313 313 311 314 318 318 319 318 317 314 313 310 308 306 301 306 306 302 307 308 309 311 310
315 315 315 316 316 316 316 317 316 315 313 315 314 314 308 304 306 306 307 308 306 308 309 313 315 313 317 322 321 320 318 317 317 315 316 312 314 309 304 306 296 307 313 312 310 311 312
314 314 315 315 316 316 316 316 317 315 314 315 316 313 309 304 308 307 306 307 309 311 310 311 314 317 321 317 311 309 309 311 313 314 314 315 310 305 303 302 305 308 311 311 309 310 315
312 313 314 314 314 315 315 316 316 315 313 315 314 315 310 305 305 310 308 308 306 307 308 310 314 318 316 311 308 302 299 303 303 307 314 313 314 308 304 299 298 309 314 317 316 307 320
311 311 312 314 314 315 315 315 316 316 314 314 314 315 309 303 309 309 307 307 310 310 307 310 312 311 314 307 302 300 300 305 300 302 304 307 310 304 305 301 304 312 315 317 304 310 321
311 311 312 313 314 315 314 315 315 316 316 315 313 316 308 304 308 310 312 309 310 308 304 309 309 310 308 303 302 302 302 303 303 307 306 305 303 304 307 302 299 315 313 307 323 326 325
310 310 311 312 314 314 314 315 315 316 316 314 308 315 315 306 306 312 314 316 314 314 310 311 310 311 313 308 308 307 303 305 305 299 310 303 306 307 307 306 318 318 319 324 321 323 326
Wind_Speed
17 15 15 14 14 14 14 14 14 13 13 15 14 15 16 17 17 16 15 15 14 13 12 11 10 10 8 9 2 9 6 6 10 11 14 13 13 6 6 13 6 10 9 11 10 16 10
16 16 14 13 14 14 14 15 15 15 16 15 15 14 15 15 18 17 15 14 13 13 12 10 10 9 7 10 12 12 11 12 13 15 14 9 12 12 7 9 6 8 3 15 5 13 8
15 16 16 15 13 13 14 16 17 17 17 18 16 16 16 16 18 17 16 15 15 13 12 10 8 7 10 4 9 11 13 12 14 11 10 7 9 14 17 13 3 14 10 9 5 11 10
13 13 14 15 18 19 19 17 16 17 17 16 16 18 17 17 17 18 15 14 14 13 12 9 6 8 6 3 4 11 13 13 9 8 11 13 8 14 16 7 14 7 8 8 17 20 11
12 12 12 13 14 16 18 20 22 22 22 22 20 19 20 20 19 17 15 15 12 11 9 4 7 9 6 4 10 12 12 11 9 11 11 11 9 15 16 6 7 7 3 7 18 15 22
14 14 16 16 16 17 16 18 18 19 20 22 22 22 22 19 20 18 17 10 8 4 6 9 12 10 9 10 13 13 12 12 9 10 11 12 11 14 12 10 10 3 1 12 13 15 17
16 16 18 18 18 17 18 18 18 18 18 18 19 20 21 21 20 16 14 5 7 7 14 9 6 12 7 9 8 10 12 11 11 11 12 12 11 12 12 15 14 15 17 18 9 19 6
18 18 18 18 19 19 20 20 20 20 20 21 21 21 22 23 20 14 7 8 9 8 7 20 9 7 5 8 10 12 13 12 14 14 15 14 11 16 10 6 14 15 20 3 15 15 17
18 19 19 20 21 21 21 22 22 23 23 23 22 23 23 23 22 6 11 11 7 9 8 14 14 12 10 12 11 14 15 17 14 15 16 17 13 13 2 5 9 9 13 14 1 5 8
18 19 19 20 20 20 21 23 24 24 24 24 24 22 23 27 4 7 10 3 7 4 7 14 13 13 15 11 14 14 17 15 8 15 17 16 17 3 4 10 10 14 11 7 5 9 5
17 18 19 20 22 22 22 22 23 23 25 25 24 23 23 10 12 9 7 5 9 5 7 13 15 10 12 13 6 11 17 18 16 14 14 15 12 14 10 12 12 14 13 9 9 11 15
17 18 19 20 21 21 22 24 25 26 25 25 25 22 22 5 7 13 8 7 7 7 6 11 12 11 15 17 8 12 14 18 11 16 14 18 12 13 15 10 13 12 11 10 12 12 11
17 18 18 19 21 21 22 23 25 28 28 29 28 26 12 9 4 9 8 7 7 9 8 12 15 13 17 16 15 12 15 17 14 13 16 17 19 10 9 12 14 14 11 9 9 10 11
16 17 19 18 19 20 22 24 25 27 29 28 33 30 8 9 9 8 6 7 10 13 15 9 11 13 17 17 17 14 13 16 19 19 13 12 14 20 17 18 14 14 16 12 11 12 10
16 17 18 20 21 21 22 24 25 28 30 30 32 9 6 9 10 6 7 11 8 13 9 2 10 12 17 18 14 17 18 17 18 19 18 13 17 10 20 15 16 16 14 18 19 20 13
17 18 18 19 21 22 22 23 24 27 31 27 11 10 13 10 5 6 9 17 18 18 13 12 12 9 15 17 18 16 17 14 20 19 19 19 14 17 14 15 17 18 13 12 10 15 16
17 17 18 19 20 19 19 20 22 26 32 34 6 7 7 7 5 7 11 15 18 17 14 8 15 19 17 16 16 18 18 17 12 17 17 17 16 13 12 12 16 12 16 17 15 12 12
16 17 17 16 16 17 18 19 20 21 31 12 7 8 9 3 7 8 13 20 20 22 16 8 13 18 20 20 17 20 20 19 8 13 17 17 10 16 16 11 13 17 17 18 12 14 14
16 15 15 16 17 18 18 18 18 16 16 9 8 11 12 5 9 12 17 22 22 18 12 14 18 15 18 18 21 19 20 16 18 15 12 13 10 15 17 15 17 16 19 18 18 16 17
15 16 16 16 17 17 18 18 17 15 13 9 7 6 6 9 9 14 17 17 20 17 15 12 20 17 17 17 17 20 21 19 16 16 9 6 16 14 15 17 15 20 16 17 17 13 15
16 14 15 16 16 16 16 16 16 17 14 7 6 7 12 9 13 17 18 15 15 17 17 13 14 15 18 17 17 18 18 20 18 9 10 12 18 19 20 23 22 17 18 22 20 20 20
14 14 13 13 13 15 15 14 14 14 19 6 6 10 10 14 18 18 15 16 18 20 20 17 20 15 16 18 17 18 20 18 17 14 15 15 17 18 23 22 22 22 20 16 18 19 21
14 14 14 16 17 17 17 17 15 14 11 6 10 13 10 9 15 14 13 18 18 17 17 17 18 17 16 18 13 13 17 19 15 16 18 18 14 16 20 21 21 25 22 20 20 15 17
13 14 15 16 16 17 17 17 16 12 7 8 9 10 9 12 14 16 18 17 18 17 16 16 16 7 8 15 17 16 16 19 20 16 17 15 12 13 16 18 31 16 20 23 23 21 18
13 14 15 15 16 16 16 16 16 15 8 7 9 8 9 12 14 18 19 16 18 14 13 16 17 14 8 12 13 13 14 17 22 20 18 19 15 12 13 18 19 20 22 22 20 18 19
13 15 16 16 17 16 16 16 16 16 10 6 5 7 6 8 10 15 14 15 13 13 14 14 13 11 14 7 9 16 13 18 17 20 22 22 19 13 14 20 25 15 20 21 18 16 15
14 15 16 17 17 17 17 17 17 16 12 5 4 5 3 6 15 15 12 12 14 13 9 14 12 6 8 6 11 15 17 19 22 22 19 16 15 16 16 19 22 19 22 19 12 9 13
13 15 16 17 17 17 18 17 17 16 13 4 3 3 3 3 16 21 21 14 13 9 9 8 8 5 8 10 10 14 16 17 20 19 20 17 2 14 17 19 25 19 21 15 2 16 16
15 15 15 16 17 17 17 16 15 14 12 7 2 3 1 3 11 20 20 21 18 16 12 11 9 5 3 5 4 7 11 14 17 15 8 9 10 8 9 9 15 14 12 9 6 6 13
Wind_Direction
4 7 7 0 359 359 359 357 357 355 353 354 350 345 338 336 333 329 319 313 310 302 297 298 301 312 282 224 241 131 156 177 199 217 253 258 281 117 275 287 233 34 319 7 111 107 101
360 3 6 8 3 0 0 358 355 355 356 354 349 342 334 329 333 327 319 310 302 295 291 289 295 308 246 258 95 146 172 175 231 220 242 272 312 322 349 6 332 221 278 232 166 89 160
5 0 359 5 12 9 1 357 355 352 350 351 345 342 339 332 332 328 320 310 300 291 286 284 286 276 260 293 144 166 186 204 223 237 270 255 301 307 300 171 157 314 345 314 169 152 98
10 6 3 0 357 357 359 1 356 350 345 343 341 339 336 331 329 329 320 307 292 280 275 267 272 258 275 129 270 184 189 214 229 246 279 300 303 291 281 272 175 29 41 357 302 329 97
11 10 9 8 5 1 358 355 352 349 347 345 343 344 342 337 333 328 318 311 290 278 249 226 233 228 240 131 209 194 207 219 222 240 254 278 275 276 277 230 52 58 113 111 328 310 252
10 13 12 11 9 5 3 357 352 351 346 342 337 335 339 335 332 327 317 292 317 282 219 218 261 245 186 212 186 194 204 230 221 237 246 249 262 252 230 201 154 199 212 163 190 295 337
7 7 7 7 4 2 359 355 351 345 340 336 332 329 328 331 329 326 318 207 204 195 224 242 215 250 144 167 145 196 197 209 225 226 231 219 240 243 252 112 155 162 203 195 111 296 349
5 4 2 2 1 358 355 351 347 343 339 335 330 326 326 329 323 315 272 257 39 330 270 226 257 240 154 153 184 198 184 204 205 220 222 240 232 264 279 103 166 196 220 271 183 203 133
5 2 1 360 358 355 353 349 346 342 338 335 332 329 328 327 319 266 243 292 332 314 265 195 206 218 201 187 213 188 193 209 201 224 224 242 239 229 355 212 272 269 295 172 236 228 214
1 1 360 359 357 353 350 346 343 339 336 332 331 329 329 325 293 249 241 29 290 317 274 174 196 218 179 213 232 186 198 206 219 230 233 232 260 214 217 260 241 270 209 281 296 271 302
1 1 360 356 354 351 348 346 342 338 333 330 328 329 325 327 314 272 25 299 324 246 275 135 166 159 172 201 172 184 181 225 241 216 234 240 228 257 229 251 249 276 310 342 297 270 280
3 1 359 357 353 350 347 344 341 337 334 328 325 326 330 150 224 261 314 298 247 234 247 166 144 192 191 216 181 161 186 231 243 261 238 259 260 235 259 222 254 272 287 267 268 268 269
3 1 359 356 352 349 346 344 340 336 333 330 325 316 306 307 296 354 301 266 231 248 131 158 174 195 210 198 223 189 197 206 224 220 246 233 246 235 260 267 238 233 245 248 239 230 242
2 360 357 354 352 349 346 343 340 335 331 330 321 311 226 235 292 293 263 235 250 267 195 101 194 192 210 209 210 197 211 219 219 240 259 214 230 218 205 227 244 219 227 244 240 244 245
1 360 357 354 352 348 346 344 341 336 332 332 313 295 230 220 221 267 242 225 242 226 320 181 201 214 205 219 225 201 211 227 228 217 249 264 245 234 203 202 234 241 216 251 268 284 285
359 357 355 353 351 349 345 343 339 336 332 331 316 291 257 134 190 223 238 242 272 302 324 306 273 219 243 215 220 229 209 222 238 227 211 256 278 282 174 196 213 246 247 223 231 260 276
355 354 353 351 348 342 337 336 339 339 333 320 264 266 108 135 186 230 242 251 257 258 265 269 272 277 267 257 226 226 233 239 221 237 226 223 252 270 170 195 229 208 239 257 272 232 240
353 351 345 339 334 337 337 335 336 342 336 336 298 276 122 237 237 236 247 252 263 280 294 264 268 284 288 290 271 263 229 240 269 200 238 215 237 239 256 212 205 257 233 230 242 240 275
347 334 329 337 338 338 338 339 338 342 3 321 296 293 285 166 261 255 253 256 255 268 285 279 271 253 275 274 283 283 276 264 244 202 230 232 218 249 247 231 204 217 239 245 228 242 261
326 333 337 341 341 341 340 339 340 337 344 317 285 297 206 193 241 269 283 290 295 293 240 266 282 288 275 268 269 271 274 276 278 252 104 286 245 230 242 234 237 198 221 246 253 246 227
323 337 347 344 339 335 335 336 340 334 330 301 249 300 347 304 309 329 317 310 298 291 290 279 249 266 279 277 273 272 266 268 269 236 177 227 254 255 257 265 272 274 218 208 226 250 258
343 347 342 333 334 346 343 339 339 337 327 253 297 337 333 303 303 298 285 275 276 282 288 280 281 275 250 276 266 292 282 269 261 250 208 212 245 253 259 262 258 265 263 260 224 218 243
346 350 346 348 349 351 350 347 342 342 339 295 349 332 301 279 287 286 278 283 283 284 279 275 280 291 308 337 335 318 310 307 298 294 299 216 228 239 249 250 263 257 253 256 254 238 225
349 351 346 342 342 344 344 343 344 337 335 303 301 305 292 285 287 283 289 292 288 283 282 310 311 300 289 344 319 308 291 283 273 274 286 283 273 223 251 247 242 258 250 250 252 251 243
349 344 340 336 338 340 338 338 340 336 316 290 305 294 283 278 277 281 279 285 292 293 292 297 286 295 308 309 294 278 266 259 268 269 265 275 274 265 252 244 260 251 242 255 260 257 250
337 334 334 337 337 334 334 336 333 333 328 273 278 301 291 286 245 316 305 295 300 289 279 244 267 275 290 261 281 268 258 273 263 260 271 259 260 259 262 255 252 254 250 267 273 259 256
328 329 329 330 331 333 335 334 336 333 333 243 289 359 291 277 280 282 292 333 323 325 307 322 353 310 282 281 250 249 259 258 256 256 264 269 245 254 245 255 259 262 278 288 298 308 291
325 327 323 326 327 329 333 334 335 336 337 214 280 314 303 284 287 297 314 301 307 329 319 324 315 252 264 255 253 257 262 254 258 259 259 242 251 273 236 255 248 246 257 266 86 351 327
319 320 321 324 322 326 328 332 335 333 341 193 271 277 299 244 291 310 294 297 294 299 292 296 278 289 322 304 303 303 272 276 270 260 250 261 269 271 243 250 321 318 353 314 113 327 324